Tracking 25949 objects as of 9-Aug-2022
HD Live streaming from Space Station
objects crossing your sky now

STARLINK-4349

Track STARLINK-4349 now!
10-day predictions
STARLINK-4349 is classified as:


NORAD ID: 53044
Int'l Code: 2022-077B
Perigee: 422.1 km
Apogee: 424.7 km
Inclination: 97.7 °
Period: 92.9 minutes
Semi major axis: 6794 km
RCS: Unknown
Launch date: July 11, 2022
Source: United States (US)
Launch site: AIR FORCE WESTERN TEST RANGE (AFWTR)
aabbcc
Your satellite tracking list
Your tracking list is empty




NASA's NSSDC Master Catalog

Two Line Element Set (TLE):
1 53044U 22077B   22220.91667824 -.01217029  00000-0 -23749-1 0  9995
2 53044  97.6554  40.8081 0001919  62.6365  55.3758 15.50156991  1302
Source of the keplerian elements: AFSPC